| time (UTC) | temp F | wind direction | speed MPH | gust MPH | rain 1hr in | rain 24hr in | rain mn in | humidity % | barometer mb |
| 20260507093015 | 49 | 0.0 | 0.0 | 0.00 | 0.00 | 0.00 | 91 | 1020.8 | |
| 20260507090015 | 50 | 0.0 | 0.0 | 0.00 | 0.00 | 0.00 | 89 | 1020.8 | |
| 20260507083015 | 51 | 0.0 | 1.0 | 0.00 | 0.00 | 0.00 | 88 | 1020.8 | |
| 20260507080017 | 52 | 0.0 | 0.0 | 0.00 | 0.00 | 0.00 | 87 | 1020.7 | |
| 20260507073017 | 53 | 0.0 | 1.0 | 0.00 | 0.00 | 0.00 | 87 | 1020.6 | |
| 20260507070017 | 53 | 0.0 | 1.0 | 0.00 | 0.00 | 0.00 | 87 | 1020.6 | |
| 20260507063016 | 54 | 0.0 | 1.0 | 0.00 | 0.00 | 0.00 | 87 | 1020.6 | |
| 20260507060016 | 54 | 0.0 | 2.0 | 0.00 | 0.00 | 0.00 | 86 | 1020.7 | |
| 20260507053016 | 54 | 0.0 | 1.0 | 0.00 | 0.00 | 0.00 | 85 | 1020.7 | |
| 20260507050016 | 55 | 0.0 | 1.0 | 0.00 | 0.00 | 0.00 | 85 | 1020.6 | |
| 20260507043016 | 55 | 0.0 | 1.0 | 0.00 | 0.00 | 0.00 | 84 | 1020.4 | |
| 20260507040016 | 55 | 0.0 | 1.0 | 0.00 | 0.00 | 0.00 | 84 | 1020.3 | |
| 20260507033016 | 56 | 0.0 | 2.0 | 0.00 | 0.00 | 0.00 | 82 | 1020.1 | |
| 20260507030016 | 57 | 0.0 | 3.0 | 0.00 | 0.00 | 0.00 | 79 | 1019.8 | |
| 20260507023016 | 57 | 0.0 | 3.0 | 0.00 | 0.00 | 0.00 | 78 | 1019.7 | |
| 20260507020016 | 58 | 0.0 | 3.0 | 0.00 | 0.00 | 0.00 | 78 | 1019.7 | |
| 20260507013015 | 58 | 0.0 | 3.0 | 0.00 | 0.00 | 0.00 | 76 | 1019.7 | |
| 20260507010015 | 59 | 0.0 | 3.0 | 0.00 | 0.00 | 0.00 | 77 | 1019.8 | |
| 20260507003015 | 59 | 0.0 | 3.0 | 0.00 | 0.00 | 0.00 | 76 | 1019.8 | |
| 20260507000015 | 59 | 0.0 | 1.0 | 0.00 | 0.00 | 0.00 | 76 | 1020.0 | |
| 20260506233017 | 59 | 0.0 | 6.0 | 0.00 | 0.00 | 0.00 | 75 | 1019.9 | |
| 20260506230017 | 60 | 0.0 | 4.0 | 0.00 | 0.00 | 0.00 | 72 | 1020.0 | |
| 20260506223017 | 60 | 0.0 | 2.0 | 0.00 | 0.00 | 0.00 | 73 | 1019.9 | |
| 20260506220017 | 59 | 0.0 | 2.0 | 0.00 | 0.00 | 0.00 | 72 | 1020.2 | |
| 20260506213017 | 58 | 0.0 | 5.0 | 0.00 | 0.00 | 0.00 | 75 | 1020.2 | |
| 20260506210017 | 59 | 0.0 | 4.0 | 0.00 | 0.00 | 0.00 | 75 | 1020.3 | |
| 20260506203017 | 58 | 270 | 1.0 | 5.0 | 0.00 | 0.00 | 0.00 | 76 | 1020.3 |
| 20260506200017 | 58 | 0.0 | 6.0 | 0.00 | 0.00 | 0.00 | 75 | 1020.2 | |
| 20260506193016 | 59 | 0.0 | 1.0 | 0.00 | 0.00 | 0.00 | 76 | 1020.1 | |
| 20260506190018 | 57 | 0.0 | 1.0 | 0.00 | 0.00 | 0.00 | 82 | 1019.9 | |
| 20260506183016 | 55 | 0.0 | 3.0 | 0.00 | 0.00 | 0.00 | 85 | 1020.0 | |
| 20260506180016 | 56 | 0.0 | 1.0 | 0.00 | 0.00 | 0.00 | 85 | 1019.5 | |
| 20260506173016 | 55 | 0.0 | 1.0 | 0.00 | 0.00 | 0.00 | 86 | 1019.8 | |
| 20260506170016 | 56 | 0.0 | 1.0 | 0.00 | 0.00 | 0.00 | 86 | 1019.7 | |
| 20260506163016 | 55 | 0.0 | 2.0 | 0.00 | 0.00 | 0.00 | 87 | 1019.3 | |
| 20260506160016 | 54 | 0.0 | 3.0 | 0.00 | 0.00 | 0.00 | 88 | 1019.1 | |
| 20260506153016 | 54 | 0.0 | 1.0 | 0.00 | 0.00 | 0.00 | 88 | 1019.4 | |
| 20260506150016 | 54 | 0.0 | 2.0 | 0.00 | 0.00 | 0.00 | 88 | 1018.8 | |
| 20260506143016 | 54 | 0.0 | 1.0 | 0.00 | 0.00 | 0.00 | 88 | 1019.1 | |
| 20260506140016 | 54 | 0.0 | 1.0 | 0.00 | 0.00 | 0.00 | 87 | 1018.9 | |
| 20260506133016 | 54 | 0.0 | 0.0 | 0.00 | 0.00 | 0.00 | 87 | 1018.9 | |
| 20260506130016 | 54 | 0.0 | 2.0 | 0.00 | 0.00 | 0.00 | 87 | 1018.4 | |
| 20260506123016 | 54 | 0.0 | 1.0 | 0.00 | 0.00 | 0.00 | 87 | 1018.4 | |
| 20260506120015 | 54 | 0.0 | 1.0 | 0.00 | 0.00 | 0.00 | 86 | 1018.3 | |
| 20260506113015 | 54 | 0.0 | 3.0 | 0.00 | 0.00 | 0.00 | 86 | 1018.0 | |
| 20260506110015 | 54 | 0.0 | 0.0 | 0.00 | 0.00 | 0.00 | 86 | 1017.9 | |
| 20260506103015 | 54 | 0.0 | 1.0 | 0.00 | 0.00 | 0.00 | 86 | 1017.7 | |
| 20260506100015 | 54 | 0.0 | 1.0 | 0.00 | 0.00 | 0.00 | 86 | 1017.4 |